Location: Bruch
(44.2051°N, 0.4120°E)
Time: 11:51:45
(UTC+00:00)

SAR-Lupe-1 - Pass Details

Date: 29 November 2020
Orbit: 481 x 485 km, 98.2° (Epoch: 22 January)

Event Time Altitude Azimuth Distance (km) Brightness Sun altitude
Rises 05:28:42 0° 177° (S) 2,538 7.9 -18.0°
Reaches altitude 10° 05:30:48 10° 183° (S) 1,663 6.9 -17.6°
Maximum altitude 05:34:16 50° 259° (W) 628 4.2 -17.0°
Enters shadow 05:35:21 36° 310° (NW) 789 4.6 -16.8°
